Location: Waco, TX
(31.5480°N, 97.1670°W)
Time: 15:46:58
(UTC-05:00)

ISS - Pass Details

Date: 17 September 2019
Orbit: 411 x 421 km, 51.6° (Epoch: 17 September)

Event Time Altitude Azimuth Distance (km) Brightness Sun altitude
Rises 06:15:34 0° 297° (WNW) 2,347 - -13.1°
Reaches altitude 10° 06:18:07 10° 277° (W) 1,484 - -12.6°
Maximum altitude 06:20:25 18° 233° (SW) 1,110 - -12.1°
Exits shadow 06:20:25 18° 233° (SW) 1,110 -2.2 -12.1°
Drops below altitude 10° 06:22:43 10° 189° (S) 1,481 -1.2 -11.6°
Sets 06:25:16 0° 169° (SSE) 2,342 0.1 -11.1°
